Probability
5 6 7 7 8 8 6 7 9 9 7 4 2 3 3 3 3 1 0 0 1 2 2 1 1 1 1 0 0 0 0 0 0 0 0 0 0 0 0 0 0 0 0
7 8 10 11 12 12 10 10 10 9 6 3 3 3 3 3 3 3 2 1 1 2 3 2 2 2 2 1 0 0 0 0 0 0 0 0 0 0 0 0 0 0 0
14 16 20 22 21 18 15 14 14 10 6 4 4 4 4 5 5 5 5 4 3 4 3 3 3 3 3 2 1 1 0 0 0 0 0 0 0 0 0 0 0 0 0
31 32 35 37 34 27 21 18 16 13 10 7 7 7 8 8 7 6 6 5 5 5 4 4 3 3 3 3 2 2 1 0 0 0 0 0 0 0 0 0 0 0 0
48 48 50 50 47 39 28 22 19 16 12 10 10 12 12 9 5 4 4 4 4 5 4 4 3 2 2 2 2 1 1 0 0 0 0 0 0 0 0 0 0 0 0
58 58 60 59 55 45 33 27 26 23 21 19 18 18 16 9 3 1 2 3 4 3 3 3 2 1 1 1 0 0 0 0 0 0 0 0 0 0 0 0 0 0 0
66 66 66 65 61 52 41 38 39 39 37 34 29 24 20 13 4 0 0 2 2 3 4 5 3 1 0 0 0 0 0 0 0 0 0 0 0 0 0 0 0 0 1
74 73 73 73 70 64 57 53 54 54 52 48 41 34 28 19 7 1 0 0 1 1 3 5 5 3 1 1 0 0 0 0 0 0 0 0 0 0 0 0 0 0 1
79 79 79 79 77 74 70 66 64 62 60 55 48 44 40 27 11 2 0 1 2 2 3 4 4 3 1 0 0 1 1 1 1 0 0 0 0 0 0 0 0 0 1
78 79 79 78 77 77 75 73 69 66 63 58 52 50 48 36 16 3 0 2 5 6 6 4 3 1 0 0 1 2 2 2 2 1 0 0 0 1 1 0 0 0 0
75 74 73 72 71 72 75 75 72 67 62 58 55 53 50 39 20 5 1 2 5 7 6 4 2 0 0 0 1 2 2 2 2 1 0 0 0 1 1 1 0 0 0
72 70 67 64 61 62 67 71 69 64 58 55 53 49 45 37 19 5 1 1 2 3 3 2 1 0 0 0 0 1 1 1 1 0 0 0 0 1 1 3 5 4 3
69 67 63 59 55 55 58 61 62 58 51 46 42 37 34 29 18 7 2 1 0 1 1 1 0 0 0 0 0 0 0 0 0 0 0 0 0 0 1 5 9 8 6
60 59 56 52 50 50 51 52 51 48 41 33 29 26 24 22 16 9 5 3 1 0 0 0 0 0 0 1 1 0 0 0 0 0 0 0 0 0 1 4 6 5 4
48 47 43 40 39 41 42 39 33 29 25 19 16 16 17 14 9 6 6 4 2 0 0 0 0 0 2 3 3 2 3 2 1 1 1 1 0 0 1 1 2 2 1
39 37 32 29 29 31 31 26 17 11 8 6 5 6 7 5 2 2 2 2 1 0 0 1 0 1 3 4 4 4 5 5 4 3 3 3 3 2 1 1 2 2 2
30 27 23 21 22 23 21 17 11 5 2 1 0 0 0 0 0 0 0 0 0 0 0 0 0 1 3 3 2 2 5 7 7 5 4 4 5 4 2 2 3 3 4
19 18 16 15 17 17 16 14 11 9 6 4 2 0 0 0 0 0 0 0 0 0 0 0 0 1 2 3 2 2 4 6 6 5 4 5 5 4 2 2 3 4 4
10 10 10 11 11 10 10 9 10 9 7 5 3 1 0 0 0 0 0 0 0 1 1 1 1 1 1 3 4 4 3 4 5 5 5 4 4 3 2 2 2 3 2
5 4 5 5 5 5 4 5 6 5 4 3 2 1 1 0 0 0 0 0 0 1 3 3 3 2 1 3 5 4 2 2 3 4 3 2 2 2 2 1 1 1 0
1 1 1 1 2 1 1 1 1 1 1 1 0 0 0 0 0 0 0 1 1 2 3 4 3 2 2 3 3 2 1 1 2 3 2 0 0 1 1 0 0 0 0
0 0 0 0 0 0 0 0 0 0 0 0 0 0 0 0 0 0 0 1 1 1 2 2 1 1 1 2 2 1 0 0 2 3 3 1 1 1 0 0 0 0 0
0 0 0 0 0 0 0 0 0 0 0 0 0 0 0 0 0 0 0 0 0 0 1 1 0 0 0 0 1 1 1 1 2 3 3 2 2 1 1 1 1 1 0
0 0 0 0 0 0 0 0 0 0 0 0 0 0 0 0 0 0 0 0 0 0 1 1 1 0 0 0 0 0 1 1 1 1 2 1 1 1 2 2 2 1 0
0 0 0 0 0 0 0 0 0 0 0 0 0 0 0 0 0 0 0 0 0 0 0 1 1 0 0 0 0 0 1 1 0 0 0 0 0 1 2 2 1 1 1
0 0 0 0 0 0 0 0 0 0 0 0 0 0 0 0 0 0 0 0 0 0 0 0 1 0 0 0 0 0 0 0 0 0 0 0 0 0 1 1 1 1 0
Wind_Speed
10 8 8 8 7 6 5 5 4 4 5 5 5 5 5 4 4 3 3 3 3 3 3 3 3 3 2 2 2 2 2 2 3 3 3 3 2 3 3 3 5 5 6
10 9 8 8 8 7 7 6 6 5 5 5 6 5 6 6 5 5 5 4 4 4 4 3 3 4 3 3 3 3 3 3 3 5 4 4 4 4 4 5 6 7 5
12 11 9 9 8 8 8 7 7 7 6 6 6 6 5 5 5 5 5 4 4 4 4 4 4 4 4 3 3 3 3 4 3 4 4 4 4 4 4 4 6 5 7
12 11 10 10 9 8 8 8 7 7 7 6 6 6 6 5 5 6 5 5 4 4 4 4 5 5 5 4 4 5 4 4 4 4 5 4 4 4 2 3 4 3 4
11 11 11 10 9 8 8 8 8 7 8 7 6 6 6 6 7 7 6 7 6 5 5 5 6 7 6 5 5 3 3 3 4 4 4 4 4 3 3 3 4 4 4
11 11 10 10 10 9 8 8 8 8 7 7 7 7 8 8 7 8 6 4 4 5 6 6 6 7 9 11 11 9 7 6 5 5 5 5 5 4 3 4 4 4 4
10 10 10 11 10 10 11 9 9 8 8 7 7 7 7 6 8 9 8 5 5 5 5 5 7 8 7 8 11 14 13 14 13 8 8 8 7 6 5 5 5 5 6
10 10 10 10 10 10 9 9 9 7 7 7 7 7 7 8 12 12 11 7 6 7 7 7 7 7 8 6 6 7 8 10 12 12 11 11 10 8 7 7 7 7 7
10 9 9 10 9 9 9 8 8 7 7 7 7 8 8 8 13 14 12 6 7 8 9 9 9 8 10 11 8 7 7 7 11 14 15 15 15 14 9 5 6 7 8
7 7 7 8 9 9 9 8 7 6 6 7 7 7 8 8 12 15 14 7 7 7 8 9 13 13 12 12 9 8 9 8 8 8 8 10 11 13 15 11 9 9 9
5 5 4 5 5 6 6 5 5 6 6 7 7 7 7 8 10 15 15 8 7 7 7 6 6 10 13 13 12 9 11 9 6 7 7 7 8 8 9 10 10 10 10
4 5 5 5 5 5 5 5 5 6 7 7 6 6 6 6 8 12 16 15 11 7 7 6 4 4 7 10 10 12 14 10 7 7 8 8 7 7 7 9 10 12 11
3 3 3 4 4 3 4 4 4 4 5 5 5 5 5 4 5 10 14 17 16 10 8 9 9 9 8 8 13 15 12 8 8 9 10 9 8 8 7 6 7 9 10
2 2 2 2 3 3 3 4 4 4 4 4 3 4 3 3 3 3 5 7 10 10 9 10 11 13 13 13 12 10 9 10 10 10 9 8 7 7 7 6 6 6 7
3 2 1 2 2 2 3 3 3 3 3 4 3 3 3 3 1 2 3 3 4 4 4 6 8 8 7 8 8 9 9 9 10 10 10 9 8 7 7 6 6 6 7
2 2 1 0 0 1 2 2 4 4 4 5 4 4 3 3 2 3 4 5 6 4 4 7 8 8 9 8 8 7 7 8 9 9 9 8 8 8 8 7 6 6 7
3 2 2 2 2 1 2 2 3 4 6 7 8 8 8 7 7 7 7 5 5 4 5 8 9 9 8 8 8 8 7 6 6 6 6 7 7 7 7 7 7 7 7
2 1 1 1 2 2 2 3 3 3 3 3 6 10 11 11 11 10 7 3 5 6 8 9 9 8 8 7 7 7 6 5 5 5 6 6 6 6 6 7 7 7 7
3 3 2 2 3 3 3 3 3 3 3 3 3 3 6 8 9 9 6 5 8 8 8 8 7 7 6 6 5 5 6 6 6 6 6 6 6 6 6 7 7 9 8
2 3 4 4 4 3 3 4 4 4 4 4 4 3 2 2 4 4 5 6 7 7 7 7 6 6 6 5 5 5 6 6 6 6 6 6 6 6 7 8 7 7 6
4 3 4 4 4 4 4 4 5 5 5 5 4 4 4 5 6 6 6 5 5 6 5 5 6 6 6 6 6 6 7 6 6 6 6 6 6 6 6 6 7 7 6
5 5 4 5 4 4 4 5 5 5 6 6 5 5 5 5 6 6 6 5 5 5 5 5 6 6 6 6 6 6 7 7 6 5 5 6 6 6 6 6 6 6 6
6 7 6 5 5 4 4 4 4 5 6 6 6 6 6 5 6 6 7 6 5 5 6 5 5 6 6 5 5 5 6 6 5 6 6 6 6 6 5 6 7 8 7
6 6 7 6 6 6 5 5 6 6 6 7 7 6 6 6 6 7 7 6 6 6 6 6 6 8 10 7 5 5 4 4 5 5 7 7 7 7 6 6 7 8 8
6 6 6 6 6 6 6 6 6 6 6 6 7 7 7 7 7 7 7 6 7 7 8 8 7 7 9 11 9 5 4 4 4 5 7 7 8 9 8 9 8 8 8
7 7 7 6 6 6 6 6 6 7 7 7 7 7 7 7 8 8 7 7 8 8 8 8 9 10 11 9 7 5 3 4 4 5 6 7 8 8 9 8 10 9 9
Wind_Direction
177 184 173 171 171 169 176 166 152 147 146 162 172 177 179 183 188 194 239 203 193 225 246 227 225 262 283 305 297 291 282 284 289 297 307 313 297 269 267 261 265 256 250
180 180 177 172 173 178 181 172 168 167 172 180 185 189 196 193 192 197 226 225 207 216 228 233 235 246 226 254 278 283 279 269 261 276 285 283 274 261 245 244 263 270 269
181 182 179 179 180 185 180 175 178 180 188 191 189 196 209 202 194 204 220 233 227 229 229 229 234 244 243 245 258 272 283 287 283 280 282 274 268 264 256 257 263 266 273
179 183 182 184 184 187 182 177 182 186 192 194 193 200 208 211 206 205 213 224 232 238 236 234 237 239 237 236 249 250 259 274 275 271 269 270 266 265 264 262 273 268 274
179 184 183 184 183 185 186 182 185 192 198 195 197 204 209 215 216 207 209 218 219 232 239 235 235 234 233 229 249 261 279 277 282 283 282 288 286 302 294 290 288 288 277
181 185 180 183 185 188 189 188 188 195 204 197 201 207 212 222 205 196 199 232 228 231 237 239 243 231 221 222 231 237 236 245 256 267 277 278 283 289 296 296 291 292 289
183 185 181 185 189 191 195 193 194 196 202 205 205 209 215 210 193 186 194 215 245 253 251 245 252 250 223 219 225 233 240 242 239 244 258 264 271 277 286 290 284 283 279
184 188 185 186 191 189 194 193 193 195 200 207 212 216 218 212 195 194 196 213 237 248 252 251 247 251 255 242 240 235 230 233 232 231 238 248 253 254 254 261 267 273 267
190 191 188 187 192 190 195 196 192 193 199 206 213 219 222 218 198 198 194 213 230 239 244 246 243 240 238 232 234 244 251 253 253 246 229 234 241 249 250 260 264 269 274
185 183 187 183 190 193 194 194 193 195 202 209 217 220 223 222 201 201 199 220 235 241 241 240 240 239 239 225 226 235 244 247 256 269 258 248 247 249 242 235 242 252 263
164 153 161 168 180 189 187 188 192 201 210 216 222 219 220 224 208 202 202 218 236 246 250 249 244 234 232 230 228 235 242 248 256 260 263 258 248 243 239 228 221 228 242
149 151 155 158 181 187 181 190 196 206 213 218 225 232 229 225 217 205 207 216 231 246 258 268 275 265 243 244 241 247 252 256 259 260 259 258 255 253 243 233 223 220 226
125 143 153 159 171 174 176 188 199 208 223 229 229 235 239 235 217 206 208 219 229 238 256 265 278 278 270 254 244 244 248 248 248 253 256 255 253 252 250 245 238 231 230
119 123 130 155 175 184 188 199 210 214 220 232 239 243 246 248 239 200 206 222 231 239 254 268 271 263 257 255 257 245 233 236 240 248 252 255 257 256 254 250 250 244 245
70 90 145 184 195 194 197 207 213 211 203 218 244 256 258 256 226 186 205 225 233 237 255 260 261 260 255 250 244 241 238 233 234 240 247 253 257 258 257 254 255 256 256
53 39 7 303 171 230 223 226 223 229 219 226 237 251 271 255 243 243 233 231 234 229 234 255 259 260 262 264 264 259 249 245 244 242 241 243 247 251 256 257 255 253 256
41 27 0 349 347 323 297 271 264 248 243 248 247 247 247 261 271 268 264 263 256 214 237 257 260 261 263 265 264 264 262 257 253 256 257 252 251 252 252 255 256 256 257
2 24 333 333 324 300 286 277 272 271 265 262 247 241 243 247 252 255 254 260 261 235 246 256 259 260 261 263 269 272 273 271 265 266 268 266 263 263 263 259 256 256 259
336 337 332 323 306 298 299 299 301 301 299 296 297 271 246 248 251 253 233 238 259 266 265 265 267 270 274 276 279 282 284 280 278 276 274 271 266 265 266 267 267 269 264
322 335 324 311 303 307 313 314 314 314 311 309 311 316 316 289 276 262 235 242 257 267 272 277 281 283 284 283 282 282 286 285 284 281 279 275 270 266 266 269 268 267 263
341 340 310 308 319 330 332 327 324 319 315 314 310 315 317 299 291 288 286 274 272 279 286 291 295 294 293 291 289 288 288 283 280 281 281 280 278 271 263 261 262 263 263
330 326 317 315 319 325 327 321 316 313 312 312 311 308 295 291 299 306 308 304 301 298 294 292 292 292 290 290 291 290 289 288 290 290 287 283 279 276 274 270 268 268 266
322 322 321 323 321 318 303 306 312 311 313 317 318 318 316 312 312 311 309 311 311 305 301 300 300 301 307 308 307 303 302 303 307 308 300 291 287 284 278 273 273 276 274
318 323 326 327 324 322 323 323 323 324 325 323 319 315 316 317 314 314 315 313 312 311 311 309 304 305 310 312 311 314 329 330 323 314 311 305 297 289 285 281 279 278 278
324 326 324 325 327 327 328 328 328 327 324 323 321 321 320 319 316 317 318 316 315 314 314 312 307 307 309 311 313 322 338 331 321 319 308 300 294 291 286 284 282 282 281
328 327 328 331 332 332 332 330 328 327 325 326 327 327 324 321 321 322 322 321 320 316 313 313 314 317 317 312 317 328 315 306 303 299 293 288 286 284 287 286 288 286 282